FW0288 Weather Reports


time (UTC)temp
C
wind
direction
speed
KPH
gust
KPH
rain 1hr
cm
rain 24hr
cm
rain mn
cm
humidity
%
barometer
mb
20260509024525 15 82 0.0 0.0 0.00 0.03 0.03 49 1006.7
20260509023024 16 82 0.0 0.0 0.00 0.03 0.03 47 1006.5
20260509021524 16 82 0.0 0.0 0.00 0.03 0.03 46 1006.4
20260509020025 16 82 0.0 0.0 0.00 0.03 0.03 45 1006.2
20260509014524 17 360 0.0 0.0 0.00 0.03 0.03 44 1006.1
20260509013023 17 360 0.0 4.8 0.00 0.03 0.03 44 1006.0
20260509011528 17 360 0.0 6.4 0.00 0.03 0.03 44 1006.0
20260509010036 18 360 0.0 12.9 0.00 0.03 0.03 42 1005.9
20260509004526 18 360 1.6 16.1 0.00 0.03 0.03 41 1005.9
20260509003020 18 45 0.0 4.8 0.00 0.03 0.03 40 1005.8
20260509001519 18 46 0.0 4.8 0.00 0.03 0.03 40 1005.8
20260509000019 18 360 1.6 14.5 0.00 0.03 0.03 41 1005.9
20260508234523 18 360 0.0 1.6 0.00 0.03 0.03 40 1005.9
20260508233018 18 74 1.6 8.0 0.00 0.03 0.03 40 1005.9
20260508231517 19 360 0.0 8.0 0.00 0.03 0.03 40 1006.0
20260508230032 18 360 3.2 14.5 0.00 0.03 0.03 42 1006.0
20260508224515 19 360 0.0 8.0 0.00 0.03 0.03 41 1006.0
20260508223012 18 360 0.0 14.5 0.00 0.03 0.03 41 1006.1
20260508221525 18 92 1.6 12.9 0.00 0.03 0.03 41 1006.3
20260508220009 18 360 0.0 6.4 0.00 0.03 0.03 44 1006.4
20260508214508 18 360 0.0 3.2 0.00 0.03 0.03 45 1006.5
20260508213014 18 360 1.6 8.0 0.00 0.03 0.03 44 1006.6
20260508211507 18 63 0.0 0.0 0.00 0.03 0.03 43 1006.6
20260508210002 20 248 0.0 6.4 0.00 0.03 0.03 37 1007.0
20260508204601 17 11 0.0 24.1 0.00 0.03 0.03 42 1007.2
20260508203104 17 32 3.2 16.1 0.00 0.03 0.03 45 1007.3
20260508201558 17 360 1.6 16.1 0.00 0.03 0.03 47 1007.5
20260508194556 16 103 0.0 8.0 0.00 0.03 0.03 44 1007.9
20260508193107 16 89 0.0 4.8 0.00 0.03 0.03 47 1008.0
20260508191600 16 360 0.0 9.7 0.00 0.03 0.03 50 1008.2
20260508190054 17 360 3.2 14.5 0.00 0.03 0.03 50 1008.3
20260508184554 15 360 0.0 9.7 0.00 0.03 0.03 52 1008.4
20260508183051 16 360 1.6 8.0 0.00 0.03 0.03 51 1008.6
20260508181548 16 360 1.6 9.7 0.00 0.03 0.03 53 1008.8
20260508180046 15 59 1.6 12.9 0.00 0.03 0.03 54 1009.0
20260508174543 15 360 3.2 12.9 0.00 0.03 0.03 52 1009.1
20260508173041 15 40 1.6 8.0 0.00 0.03 0.03 54 1009.2
20260508171539 15 38 0.0 4.8 0.00 0.03 0.03 51 1009.2
20260508170037 15 57 1.6 9.7 0.00 0.03 0.03 53 1009.2
20260508164537 14 360 0.0 6.4 0.00 0.03 0.03 55 1009.3
20260508163032 13 86 0.0 6.4 0.00 0.03 0.03 56 1009.3
20260508161528 13 360 1.6 6.4 0.00 0.03 0.03 58 1009.4
20260508160031 13 360 0.0 6.4 0.00 0.03 0.03 62 1009.4
20260508154527 12 360 1.6 9.7 0.00 0.03 0.03 62 1009.3
20260508153024 13 360 1.6 12.9 0.00 0.03 0.03 65 1009.3
20260508151524 13 360 1.6 6.4 0.00 0.03 0.03 62 1009.2
20260508150018 12 360 1.6 9.7 0.00 0.03 0.03 66 1009.1
20260508144518 12 147 0.0 6.4 0.00 0.03 0.03 64 1009.4
20260508143015 12 182 0.0 1.6 0.00 0.03 0.03 66 1009.3
20260508141510 11 162 0.0 4.8 0.00 0.03 0.03 72 1009.6
20260508140005 10 205 0.0 6.4 0.00 0.03 0.03 77 1009.6
20260508134505 10 261 0.0 0.0 0.00 0.03 0.03 85 1010.0
20260508133112 7 261 0.0 0.0 0.00 0.03 0.03 85 1010.1
20260508131602 7 261 0.0 0.0 0.00 0.03 0.03 84 1010.1
20260508130111 7 261 0.0 0.0 0.00 0.03 0.03 84 1010.1
20260508124558 7 261 0.0 0.0 0.00 0.03 0.03 86 1010.3
20260508123105 6 360 0.0 3.2 0.00 0.03 0.03 86 1010.1
20260508121602 6 285 0.0 4.8 0.00 0.03 0.03 88 1010.4
20260508120049 5 254 0.0 0.0 0.00 0.03 0.03 88 1009.7
20260508114546 5 233 0.0 1.6 0.00 0.03 0.03 88 1008.9
20260508113046 5 360 0.0 1.6 0.00 0.03 0.03 88 1008.9
20260508111544 5 15 0.0 0.0 0.03 0.03 0.03 87 1009.0
20260508110042 5 15 0.0 0.0 0.03 0.03 0.03 87 1008.8
20260508104611 5 15 0.0 0.0 0.03 0.03 0.03 87 1008.6
20260508103044 5 15 0.0 0.0 0.03 0.03 0.03 86 1008.4
20260508101541 5 15 0.0 1.6 0.00 0.00 0.00 86 1008.1
20260508100036 6 161 0.0 0.0 0.00 0.00 0.00 86 1007.4
20260508094543 6 160 0.0 0.0 0.00 0.00 0.00 86 1007.5
20260508093034 6 149 0.0 0.0 0.00 0.00 0.00 86 1007.4
20260508091532 6 149 0.0 0.0 0.00 0.00 0.00 86 1007.4
20260508084527 6 360 0.0 1.6 0.00 0.00 0.00 87 1007.9
20260508083024 7 143 0.0 0.0 0.00 0.00 0.00 87 1008.0
20260508081523 7 109 0.0 0.0 0.00 0.00 0.00 87 1008.1
20260508080026 7 360 0.0 0.0 0.00 0.00 0.00 86 1008.4
20260508074520 7 360 0.0 0.0 0.00 0.00 0.00 85 1008.7
20260508073018 7 108 0.0 0.0 0.00 0.00 0.00 84 1008.8
20260508071517 8 108 0.0 0.0 0.00 0.00 0.00 83 1008.7
20260508070020 8 107 0.0 0.0 0.00 0.00 0.00 82 1008.7
20260508064509 8 360 0.0 0.0 0.00 0.00 0.00 80 1008.4
20260508063006 9 360 0.0 0.0 0.00 0.00 0.00 79 1008.4
20260508061507 10 108 0.0 0.0 0.00 0.00 0.00 77 1008.3
20260508060001 10 107 0.0 1.6 0.00 0.00 0.00 73 1008.1
20260508054557 11 74 0.0 3.2 0.00 0.00 0.00 69 1008.5
20260508053105 11 360 0.0 6.4 0.00 0.00 0.00 64 1009.5
20260508051555 11 273 0.0 3.2 0.00 0.00 0.00 66 1008.7
20260508050059 11 23 0.0 0.0 0.00 0.00 0.00 65 1008.4
20260508044551 12 360 0.0 0.0 0.00 0.00 0.00 63 1008.1
20260508043100 12 360 0.0 1.6 0.00 0.00 0.00 63 1008.3
20260508041547 12 37 0.0 8.0 0.00 0.00 0.00 61 1008.5
20260508040044 13 360 0.0 14.5 0.00 0.00 0.00 56 1009.2
20260508034540 13 360 1.6 8.0 0.00 0.00 0.00 50 1008.7
20260508033037 14 124 0.0 0.0 0.00 0.00 0.00 44 1008.2
20260508031535 15 162 0.0 4.8 0.00 0.00 0.00 43 1008.3
20260508030048 15 259 0.0 6.4 0.00 0.00 0.00 43 1008.0